DL4ABR-6 Weather Reports


time (UTC)temp
F
wind
direction
speed
knots
gust
knots
rain 1hr
in
rain 24hr
in
rain mn
in
humidity
%
barometer
mb
20260507112221 46 132 0.0 0.0 0.00 0.00 0.27 99 1011.7
20260507110930 46 112 0.0 0.0 0.00 0.00 0.27 99 1011.4
20260507105443 47 161 0.0 0.0 0.00 0.00 0.27 99 1011.4
20260507104155 47 118 0.0 0.0 0.00 0.00 0.27 99 1011.2
20260507102855 47 118 0.9 0.9 0.00 0.00 0.27 99 1011.2
20260507101640 46 152 0.0 0.0 0.00 0.00 0.27 99 1011.1
20260507100335 47 151 0.9 0.9 0.00 0.00 0.27 99 1011.0
20260507094846 47 178 0.0 0.9 0.00 0.00 0.27 99 1010.6
20260507093624 46 146 0.9 0.9 0.00 0.00 0.27 99 1010.7
20260507092400 46 85 0.9 0.9 0.00 0.00 0.27 99 1010.4
20260507090910 46 157 0.0 0.0 0.00 0.00 0.27 99 1010.4
20260507085530 46 154 0.0 0.0 0.00 0.00 0.27 99 1010.2
20260507084135 46 157 0.0 0.0 0.00 0.00 0.27 99 1010.0
20260507082755 46 181 0.0 0.9 0.00 0.00 0.27 99 1009.9
20260507081530 46 165 0.0 0.9 0.00 0.00 0.27 99 1009.9
20260507080215 45 151 0.9 0.9 0.00 0.00 0.27 99 1009.5
20260507074855 46 156 0.0 0.0 0.00 0.00 0.27 99 1009.7
20260507073535 46 146 0.0 0.0 0.00 0.00 0.27 99 1009.3
20260507072050 45 156 0.0 0.0 0.00 0.00 0.27 99 1009.5
20260507070554 45 129 0.0 0.0 0.00 0.00 0.27 99 1009.2
20260507065320 45 136 0.0 0.9 0.00 0.00 0.27 99 1009.1
20260507064027 45 146 0.0 0.0 0.00 0.00 0.27 99 1009.1
20260507062820 46 140 0.0 0.0 0.00 0.00 0.27 99 1008.8
20260507061320 45 145 0.0 0.0 0.00 0.00 0.27 99 1008.4
20260507055835 45 132 0.0 0.0 0.00 0.00 0.27 99 1008.2
20260507054415 45 136 0.0 0.0 0.00 0.00 0.27 99 1008.2
20260507053140 45 135 0.0 0.0 0.00 0.00 0.27 99 1008.1
20260507051650 45 151 0.0 0.9 0.00 0.00 0.27 99 1008.1
20260507050215 45 123 0.9 0.9 0.00 0.00 0.26 99 1007.6
20260507044954 44 149 0.0 0.0 0.00 0.00 0.25 99 1007.7
20260507043520 44 126 0.0 0.0 0.00 0.00 0.23 99 1007.4
20260507042040 44 156 0.0 0.0 0.00 0.00 0.20 99 1007.2
20260507040741 44 165 0.0 0.0 0.00 0.00 0.19 99 1007.2
20260507035455 45 157 0.0 0.0 0.00 0.00 0.18 99 1007.2
20260507034210 45 222 0.9 2.6 0.00 0.00 0.18 99 1007.0
20260507032745 45 136 0.0 0.0 0.00 0.00 0.16 99 1007.0
20260507031410 45 146 0.0 0.0 0.00 0.00 0.13 99 1006.9
20260507025920 45 133 0.0 0.9 0.00 0.00 0.12 99 1006.9
20260507024600 45 126 0.0 0.0 0.00 0.00 0.11 99 1006.8
20260507023244 45 125 0.0 0.0 0.00 0.00 0.11 99 1006.6
20260507022020 45 139 0.0 0.0 0.00 0.00 0.10 99 1006.6
20260507020524 46 151 0.0 0.9 0.00 0.00 0.09 99 1006.4
20260507015200 46 175 0.0 0.0 0.00 0.00 0.09 99 1006.1
20260507013835 46 146 0.0 0.0 0.00 0.00 0.09 99 1006.1
20260507012524 46 121 0.0 0.0 0.00 0.00 0.08 99 1006.1
20260507011320 47 139 0.0 0.0 0.00 0.00 0.08 99 1005.8
20260507005927 47 139 0.0 0.9 0.00 0.00 0.07 99 1005.9
20260507004624 47 155 0.0 0.0 0.00 0.00 0.07 99 1005.8
20260507003340 48 151 0.0 0.0 0.00 0.00 0.07 99 1005.7
20260507001915 48 139 0.0 0.0 0.00 0.00 0.07 99 1005.7
20260507000650 48 136 0.0 0.0 0.00 0.00 0.07 99 1005.4
20260506235430 48 145 0.0 0.0 0.00 0.00 0.07 99 1005.6
20260506234024 48 162 0.0 0.0 0.00 0.00 0.07 99 1005.4
20260506232644 48 131 0.0 0.0 0.00 0.00 0.06 99 1005.5
20260506231154 48 133 0.0 0.0 0.00 0.00 0.06 99 1005.1
20260506225920 48 136 0.0 0.0 0.00 0.00 0.05 99 1005.6
20260506224535 48 69 0.9 0.9 0.00 0.00 0.05 99 1005.3
20260506223325 48 139 0.0 0.0 0.00 0.00 0.04 99 1005.0
20260506222110 48 178 0.0 0.0 0.00 0.00 0.03 99 1005.0
20260506220750 48 128 0.0 0.0 0.00 0.00 0.02 99 1005.0
20260506215524 48 139 0.0 0.0 0.00 0.00 1.04 99 1005.0
20260506214230 48 139 0.0 0.0 0.00 0.00 1.03 99 1004.9
20260506212835 48 100 0.0 0.9 0.00 0.00 1.02 99 1005.0
20260506211624 48 154 0.0 0.0 0.00 0.00 1.02 99 1004.8
20260506210415 48 106 0.0 0.9 0.00 0.00 1.02 99 1004.6
20260506205119 48 340 0.9 0.9 0.00 0.00 1.01 99 1004.5
20260506203655 48 136 0.0 0.0 0.00 0.00 1.01 99 1004.5
20260506202200 49 98 1.7 1.7 0.00 0.00 1.00 99 1004.4
20260506200940 49 169 0.0 0.0 0.00 0.00 1.00 99 1004.4
20260506195604 50 132 1.7 1.7 0.00 0.00 1.00 99 1004.2
20260506194224 50 146 0.0 0.0 0.00 0.00 1.00 99 1003.8
20260506192724 50 203 0.0 0.0 0.00 0.00 1.00 99 1003.8
20260506191444 50 149 0.0 0.0 0.00 0.00 1.00 99 1003.8
20260506190144 50 208 0.0 0.9 0.00 0.00 1.00 99 1003.5
20260506184805 50 152 0.0 0.0 0.00 0.00 1.00 99 1003.2
20260506183340 50 111 0.9 1.7 0.00 0.00 1.00 99 1003.2
20260506182135 51 154 0.0 0.0 0.00 0.00 1.00 99 1003.1
20260506180744 51 114 0.0 0.9 0.00 0.00 1.00 99 1003.0
20260506175350 51 211 0.9 1.7 0.00 0.00 0.99 99 1003.0
20260506174145 51 149 0.0 0.9 0.00 0.00 0.99 99 1003.3
20260506172655 51 155 0.0 0.0 0.00 0.00 0.99 99 1003.0
20260506171310 51 152 0.0 0.0 0.00 0.00 0.98 99 1003.0
20260506165930 51 63 0.9 1.7 0.00 0.00 0.97 99 1002.9
20260506164635 51 122 0.0 0.0 0.00 0.00 0.96 99 1002.6
20260506163305 51 149 0.0 0.0 0.00 0.00 0.94 99 1002.8
20260506161910 51 160 0.0 0.0 0.00 0.00 0.93 99 1002.7
20260506160535 51 146 0.0 0.9 0.00 0.00 0.89 99 1002.9
20260506155245 51 152 0.0 0.0 0.00 0.00 0.88 99 1002.7
20260506153955 51 146 0.0 0.0 0.00 0.00 0.87 99 1002.9
20260506152604 51 79 0.0 0.9 0.00 0.00 0.87 99 1002.8
20260506151250 51 152 0.0 0.9 0.00 0.00 0.87 99 1002.8
20260506145940 51 131 0.0 0.0 0.00 0.00 0.86 99 1003.0
20260506144550 51 119 0.0 0.9 0.00 0.00 0.86 99 1002.8
20260506143055 51 133 0.0 0.0 0.00 0.00 0.86 99 1002.9
20260506141800 51 161 0.0 0.0 0.00 0.00 0.86 99 1003.0
20260506140455 51 77 1.7 2.6 0.00 0.00 0.86 99 1003.0
20260506134955 51 130 0.0 0.0 0.00 0.00 0.86 99 1003.0
20260506133504 51 139 0.0 0.0 0.00 0.00 0.85 99 1003.2
20260506132210 51 156 0.0 0.0 0.00 0.00 0.85 99 1003.3
20260506130950 51 151 0.0 0.0 0.00 0.00 0.85 99 1003.1
20260506125744 51 124 0.9 1.7 0.00 0.00 0.84 99 1003.0
20260506124535 50 157 0.9 0.9 0.00 0.00 0.84 99 1003.1
20260506123320 50 105 0.9 0.9 0.00 0.00 0.83 99 1002.9
20260506122115 50 149 1.7 1.7 0.00 0.00 0.83 99 1003.0
20260506120620 50 167 0.0 0.9 0.00 0.00 0.83 99 1003.0
20260506115242 50 151 0.0 0.0 0.00 0.00 0.82 99 1002.9
20260506113950 49 124 0.0 0.9 0.00 0.00 0.81 99 1003.1